Time,TemperatureF,DewpointF,PressureIn,WindDirection,WindDirectionDegrees,WindSpeedMPH,WindSpeedGustMPH,Humidity,HourlyPrecipIn,Conditions,Clouds,dailyrainin,SoftwareType,DateUTC
2013-05-03 00:02:00,29.0,28.0,-100.00,NNW,335,2.0,3.0,97,-99.99,,,-99.99,,2013-05-03 05:02:00,
2013-05-03 00:12:00,29.0,28.0,-100.00,NNW,335,2.0,3.0,97,-99.99,,,-99.99,,2013-05-03 05:12:00,
2013-05-03 00:21:00,29.0,28.0,-100.00,NNW,335,2.0,3.0,97,-99.99,,,-99.99,,2013-05-03 05:21:00,
2013-05-03 00:32:00,29.0,29.0,-100.00,NW,325,2.0,2.0,98,-99.99,,,-99.99,,2013-05-03 05:32:00,
2013-05-03 00:42:00,29.0,29.0,-100.00,NW,325,2.0,2.0,98,-99.99,,,-99.99,,2013-05-03 05:42:00,
2013-05-03 00:52:00,29.0,29.0,-100.00,NW,325,2.0,2.0,98,-99.99,,,-99.99,,2013-05-03 05:52:00,
2013-05-03 01:02:00,29.0,29.0,-100.00,North,350,3.0,4.0,99,-99.99,,,-99.99,,2013-05-03 06:02:00,
2013-05-03 01:12:00,29.0,29.0,-100.00,North,350,3.0,4.0,99,-99.99,,,-99.99,,2013-05-03 06:12:00,
2013-05-03 01:21:00,29.0,29.0,-100.00,North,350,3.0,4.0,99,-99.99,,,-99.99,,2013-05-03 06:21:00,
2013-05-03 01:32:00,28.0,28.0,-100.00,NNW,335,1.0,2.0,99,-99.99,,,-99.99,,2013-05-03 06:32:00,
2013-05-03 01:42:00,28.0,28.0,-100.00,NNW,335,1.0,2.0,99,-99.99,,,-99.99,,2013-05-03 06:42:00,
2013-05-03 01:52:00,28.0,28.0,-100.00,NNW,335,1.0,2.0,99,-99.99,,,-99.99,,2013-05-03 06:52:00,
2013-05-03 02:01:00,28.0,28.0,-100.00,NW,320,2.0,2.0,99,-99.99,,,-99.99,,2013-05-03 07:01:00,
2013-05-03 02:11:00,28.0,28.0,-100.00,NW,320,2.0,2.0,99,-99.99,,,-99.99,,2013-05-03 07:11:00,
2013-05-03 02:21:00,28.0,28.0,-100.00,NW,320,2.0,2.0,99,-99.99,,,-99.99,,2013-05-03 07:21:00,
2013-05-03 02:31:00,28.0,28.0,-100.00,North,10,2.0,4.0,99,-99.99,,,-99.99,,2013-05-03 07:31:00,
2013-05-03 02:42:00,28.0,28.0,-100.00,North,10,2.0,4.0,99,-99.99,,,-99.99,,2013-05-03 07:42:00,
2013-05-03 02:52:00,28.0,28.0,-100.00,North,10,2.0,4.0,99,-99.99,,,-99.99,,2013-05-03 07:52:00,
2013-05-03 03:02:00,27.0,27.0,-100.00,NW,310,1.0,1.0,99,-99.99,,,-99.99,,2013-05-03 08:02:00,
2013-05-03 03:11:00,27.0,27.0,-100.00,NW,310,1.0,1.0,99,-99.99,,,-99.99,,2013-05-03 08:11:00,
2013-05-03 03:21:00,27.0,27.0,-100.00,NW,310,1.0,1.0,99,-99.99,,,-99.99,,2013-05-03 08:21:00,
2013-05-03 03:32:00,27.0,27.0,-100.00,NW,310,1.0,1.0,99,-99.99,,,-99.99,,2013-05-03 08:32:00,
2013-05-03 03:42:00,27.0,27.0,-100.00,NW,310,1.0,1.0,99,-99.99,,,-99.99,,2013-05-03 08:42:00,
2013-05-03 03:53:00,27.0,27.0,-100.00,NW,310,1.0,1.0,99,-99.99,,,-99.99,,2013-05-03 08:53:00,
2013-05-03 04:01:00,27.0,27.0,-100.00,NW,315,3.0,3.0,99,-99.99,,,-99.99,,2013-05-03 09:01:00,
2013-05-03 04:12:00,27.0,27.0,-100.00,NW,315,3.0,3.0,99,-99.99,,,-99.99,,2013-05-03 09:12:00,
2013-05-03 04:21:00,27.0,27.0,-100.00,NW,315,3.0,3.0,99,-99.99,,,-99.99,,2013-05-03 09:21:00,
2013-05-03 04:32:00,26.0,26.0,-100.00,NNW,335,2.0,4.0,99,-99.99,,,-99.99,,2013-05-03 09:32:00,
2013-05-03 04:42:00,26.0,26.0,-100.00,NNW,335,2.0,4.0,99,-99.99,,,-99.99,,2013-05-03 09:42:00,
2013-05-03 04:53:00,26.0,26.0,-100.00,NNW,335,2.0,4.0,99,-99.99,,,-99.99,,2013-05-03 09:53:00,
2013-05-03 05:02:00,27.0,26.0,-100.00,North,0,2.0,2.0,99,-99.99,,,-99.99,,2013-05-03 10:02:00,
2013-05-03 05:12:00,27.0,26.0,-100.00,North,0,2.0,2.0,99,-99.99,,,-99.99,,2013-05-03 10:12:00,
2013-05-03 05:22:00,27.0,26.0,-100.00,North,0,2.0,2.0,99,-99.99,,,-99.99,,2013-05-03 10:22:00,
2013-05-03 05:32:00,27.0,27.0,-100.00,ENE,60,3.0,4.0,99,-99.99,,,-99.99,,2013-05-03 10:32:00,
2013-05-03 05:42:00,27.0,27.0,-100.00,ENE,60,3.0,4.0,99,-99.99,,,-99.99,,2013-05-03 10:42:00,
2013-05-03 05:52:00,27.0,27.0,-100.00,ENE,60,3.0,4.0,99,-99.99,,,-99.99,,2013-05-03 10:52:00,
2013-05-03 06:02:00,28.0,27.0,-100.00,East,80,2.0,4.0,99,-99.99,,,-99.99,,2013-05-03 11:02:00,
2013-05-03 06:11:00,28.0,27.0,-100.00,East,80,2.0,4.0,99,-99.99,,,-99.99,,2013-05-03 11:11:00,
2013-05-03 06:22:00,28.0,27.0,-100.00,East,80,2.0,4.0,99,-99.99,,,-99.99,,2013-05-03 11:22:00,
2013-05-03 06:32:00,27.0,27.0,-100.00,ENE,75,0.0,2.0,99,-99.99,,,-99.99,,2013-05-03 11:32:00,
2013-05-03 06:42:00,27.0,27.0,-100.00,ENE,75,0.0,2.0,99,-99.99,,,-99.99,,2013-05-03 11:42:00,
2013-05-03 06:52:00,27.0,27.0,-100.00,ENE,75,0.0,2.0,99,-99.99,,,-99.99,,2013-05-03 11:52:00,
2013-05-03 07:01:00,28.0,27.0,-100.00,NE,45,1.0,4.0,99,-99.99,,,-99.99,,2013-05-03 12:01:00,
2013-05-03 07:11:00,28.0,27.0,-100.00,NE,45,1.0,4.0,99,-99.99,,,-99.99,,2013-05-03 12:11:00,
2013-05-03 07:21:00,28.0,27.0,-100.00,NE,45,1.0,4.0,99,-99.99,,,-99.99,,2013-05-03 12:21:00,
2013-05-03 07:32:00,29.0,29.0,-100.00,ENE,65,2.0,4.0,99,-99.99,,,-99.99,,2013-05-03 12:32:00,
2013-05-03 07:42:00,29.0,29.0,-100.00,ENE,65,2.0,4.0,99,-99.99,,,-99.99,,2013-05-03 12:42:00,
2013-05-03 07:52:00,29.0,29.0,-100.00,ENE,65,2.0,4.0,99,-99.99,,,-99.99,,2013-05-03 12:52:00,
2013-05-03 08:01:00,31.0,31.0,-100.00,ENE,75,2.0,4.0,99,-99.99,,,-99.99,,2013-05-03 13:01:00,
2013-05-03 08:11:00,31.0,31.0,-100.00,ENE,75,2.0,4.0,99,-99.99,,,-99.99,,2013-05-03 13:11:00,
2013-05-03 08:22:00,31.0,31.0,-100.00,ENE,75,2.0,4.0,99,-99.99,,,-99.99,,2013-05-03 13:22:00,
2013-05-03 08:32:00,32.0,30.0,-100.00,ENE,70,4.0,7.0,92,-99.99,,,-99.99,,2013-05-03 13:32:00,
2013-05-03 08:42:00,32.0,30.0,-100.00,ENE,70,4.0,7.0,92,-99.99,,,-99.99,,2013-05-03 13:42:00,
2013-05-03 08:52:00,32.0,30.0,-100.00,ENE,70,4.0,7.0,92,-99.99,,,-99.99,,2013-05-03 13:52:00,
2013-05-03 09:02:00,33.0,27.0,-100.00,ENE,60,4.0,6.0,78,-99.99,,,-99.99,,2013-05-03 14:02:00,
2013-05-03 09:11:00,33.0,27.0,-100.00,ENE,60,4.0,6.0,78,-99.99,,,-99.99,,2013-05-03 14:11:00,
2013-05-03 09:22:00,33.0,27.0,-100.00,ENE,60,4.0,6.0,78,-99.99,,,-99.99,,2013-05-03 14:22:00,
2013-05-03 09:32:00,34.0,25.0,-100.00,ENE,60,5.0,7.0,69,-99.99,,,-99.99,,2013-05-03 14:32:00,
2013-05-03 09:42:00,34.0,25.0,-100.00,ENE,60,5.0,7.0,69,-99.99,,,-99.99,,2013-05-03 14:42:00,
2013-05-03 09:52:00,34.0,25.0,-100.00,ENE,60,5.0,7.0,69,-99.99,,,-99.99,,2013-05-03 14:52:00,
2013-05-03 10:01:00,36.0,26.0,-100.00,ENE,65,5.0,8.0,67,-99.99,,,-99.99,,2013-05-03 15:01:00,
2013-05-03 10:11:00,36.0,26.0,-100.00,ENE,65,5.0,8.0,67,-99.99,,,-99.99,,2013-05-03 15:11:00,
2013-05-03 10:22:00,36.0,26.0,-100.00,ENE,65,5.0,8.0,67,-99.99,,,-99.99,,2013-05-03 15:22:00,
2013-05-03 10:32:00,37.0,24.0,-100.00,ENE,70,6.0,7.0,60,-99.99,,,-99.99,,2013-05-03 15:32:00,
2013-05-03 10:43:00,37.0,24.0,-100.00,ENE,70,6.0,7.0,60,-99.99,,,-99.99,,2013-05-03 15:43:00,
2013-05-03 10:53:00,37.0,24.0,-100.00,ENE,70,6.0,7.0,60,-99.99,,,-99.99,,2013-05-03 15:53:00,
2013-05-03 11:03:00,38.0,25.0,-100.00,ENE,70,4.0,11.0,58,-99.99,,,-99.99,,2013-05-03 16:03:00,
2013-05-03 11:13:00,38.0,25.0,-100.00,ENE,70,4.0,11.0,58,-99.99,,,-99.99,,2013-05-03 16:13:00,
2013-05-03 11:23:00,38.0,25.0,-100.00,ENE,70,4.0,11.0,58,-99.99,,,-99.99,,2013-05-03 16:23:00,
2013-05-03 11:32:00,38.0,25.0,-100.00,NE,50,9.0,14.0,59,-99.99,,,-99.99,,2013-05-03 16:32:00,
2013-05-03 11:42:00,38.0,25.0,-100.00,NE,50,9.0,14.0,59,-99.99,,,-99.99,,2013-05-03 16:42:00,
2013-05-03 11:52:00,38.0,25.0,-100.00,NE,50,9.0,14.0,59,-99.99,,,-99.99,,2013-05-03 16:52:00,
2013-05-03 12:02:00,40.0,26.0,-100.00,North,0,8.0,15.0,59,-99.99,,,-99.99,,2013-05-03 17:02:00,
2013-05-03 12:12:00,40.0,26.0,-100.00,North,0,8.0,15.0,59,-99.99,,,-99.99,,2013-05-03 17:12:00,
2013-05-03 12:23:00,40.0,26.0,-100.00,North,0,8.0,15.0,59,-99.99,,,-99.99,,2013-05-03 17:23:00,
2013-05-03 12:32:00,41.0,27.0,-100.00,NE,50,7.0,12.0,56,-99.99,,,-99.99,,2013-05-03 17:32:00,
2013-05-03 12:42:00,41.0,27.0,-100.00,NE,50,7.0,12.0,56,-99.99,,,-99.99,,2013-05-03 17:42:00,
2013-05-03 12:52:00,41.0,27.0,-100.00,NE,50,7.0,12.0,56,-99.99,,,-99.99,,2013-05-03 17:52:00,
2013-05-03 13:01:00,42.0,27.0,-100.00,ENE,70,5.0,11.0,54,-99.99,,,-99.99,,2013-05-03 18:01:00,
2013-05-03 13:12:00,42.0,27.0,-100.00,ENE,70,5.0,11.0,54,-99.99,,,-99.99,,2013-05-03 18:12:00,
2013-05-03 13:21:00,42.0,27.0,-100.00,ENE,70,5.0,11.0,54,-99.99,,,-99.99,,2013-05-03 18:21:00,
2013-05-03 13:32:00,43.0,27.0,-100.00,NE,35,9.0,14.0,53,-99.99,,,-99.99,,2013-05-03 18:32:00,
2013-05-03 13:42:00,43.0,27.0,-100.00,NE,35,9.0,14.0,53,-99.99,,,-99.99,,2013-05-03 18:42:00,
2013-05-03 13:52:00,43.0,27.0,-100.00,NE,35,9.0,14.0,53,-99.99,,,-99.99,,2013-05-03 18:52:00,
2013-05-03 14:01:00,43.0,27.0,-100.00,NE,35,9.0,14.0,53,-99.99,,,-99.99,,2013-05-03 19:01:00,
2013-05-03 15:02:00,45.0,29.0,-100.00,North,0,7.0,14.0,53,-99.99,,,-99.99,,2013-05-03 20:02:00,
2013-05-03 15:11:00,45.0,29.0,-100.00,North,0,7.0,14.0,53,-99.99,,,-99.99,,2013-05-03 20:11:00,
2013-05-03 15:21:00,45.0,29.0,-100.00,North,0,7.0,14.0,53,-99.99,,,-99.99,,2013-05-03 20:21:00,
2013-05-03 15:32:00,47.0,29.0,-100.00,NE,50,9.0,17.0,49,-99.99,,,-99.99,,2013-05-03 20:32:00,
2013-05-03 15:42:00,47.0,29.0,-100.00,NE,50,9.0,17.0,49,-99.99,,,-99.99,,2013-05-03 20:42:00,
2013-05-03 15:52:00,47.0,29.0,-100.00,NE,50,9.0,17.0,49,-99.99,,,-99.99,,2013-05-03 20:52:00,
2013-05-03 16:01:00,46.0,32.0,-100.00,NNW,345,11.0,17.0,56,-99.99,,,-99.99,,2013-05-03 21:01:00,
2013-05-03 16:11:00,46.0,32.0,-100.00,NNW,345,11.0,17.0,56,-99.99,,,-99.99,,2013-05-03 21:11:00,
2013-05-03 16:21:00,46.0,32.0,-100.00,NNW,345,11.0,17.0,56,-99.99,,,-99.99,,2013-05-03 21:21:00,
2013-05-03 16:33:00,47.0,32.0,-100.00,North,350,12.0,16.0,57,-99.99,,,-99.99,,2013-05-03 21:33:00,
2013-05-03 16:43:00,47.0,32.0,-100.00,North,350,12.0,16.0,57,-99.99,,,-99.99,,2013-05-03 21:43:00,
2013-05-03 16:53:00,47.0,32.0,-100.00,North,350,12.0,16.0,57,-99.99,,,-99.99,,2013-05-03 21:53:00,
2013-05-03 17:02:00,49.0,30.0,-100.00,NNE,20,11.0,19.0,48,-99.99,,,-99.99,,2013-05-03 22:02:00,
2013-05-03 17:13:00,49.0,30.0,-100.00,NNE,20,11.0,19.0,48,-99.99,,,-99.99,,2013-05-03 22:13:00,
2013-05-03 17:22:00,49.0,30.0,-100.00,NNE,20,11.0,19.0,48,-99.99,,,-99.99,,2013-05-03 22:22:00,
2013-05-03 17:32:00,48.0,33.0,-100.00,NNW,335,15.0,18.0,56,-99.99,,,-99.99,,2013-05-03 22:32:00,
2013-05-03 17:42:00,48.0,33.0,-100.00,NNW,335,15.0,18.0,56,-99.99,,,-99.99,,2013-05-03 22:42:00,
2013-05-03 17:52:00,48.0,33.0,-100.00,NNW,335,15.0,18.0,56,-99.99,,,-99.99,,2013-05-03 22:52:00,
2013-05-03 18:02:00,49.0,28.0,-100.00,NNE,15,11.0,19.0,45,-99.99,,,-99.99,,2013-05-03 23:02:00,
2013-05-03 18:11:00,49.0,28.0,-100.00,NNE,15,11.0,19.0,45,-99.99,,,-99.99,,2013-05-03 23:11:00,
2013-05-03 18:22:00,49.0,28.0,-100.00,NNE,15,11.0,19.0,45,-99.99,,,-99.99,,2013-05-03 23:22:00,
2013-05-03 18:31:00,48.0,33.0,-100.00,NNW,340,12.0,19.0,56,-99.99,,,-99.99,,2013-05-03 23:31:00,
2013-05-03 18:41:00,48.0,33.0,-100.00,NNW,340,12.0,19.0,56,-99.99,,,-99.99,,2013-05-03 23:41:00,
2013-05-03 18:52:00,48.0,33.0,-100.00,NNW,340,12.0,19.0,56,-99.99,,,-99.99,,2013-05-03 23:52:00,
2013-05-03 19:01:00,48.0,33.0,-100.00,NNW,340,12.0,19.0,56,-99.99,,,-99.99,,2013-05-04 00:01:00,
2013-05-03 20:01:00,47.0,34.0,-100.00,NNW,345,12.0,18.0,59,-99.99,,,-99.99,,2013-05-04 01:01:00,
2013-05-03 20:11:00,47.0,34.0,-100.00,NNW,345,12.0,18.0,59,-99.99,,,-99.99,,2013-05-04 01:11:00,
2013-05-03 20:21:00,47.0,34.0,-100.00,NNW,345,12.0,18.0,59,-99.99,,,-99.99,,2013-05-04 01:21:00,
2013-05-03 20:32:00,47.0,34.0,-100.00,NNW,345,12.0,18.0,59,-99.99,,,-99.99,,2013-05-04 01:32:00,
2013-05-03 22:02:00,44.0,36.0,-100.00,NNW,345,7.0,11.0,76,-99.99,,,-99.99,,2013-05-04 03:02:00,
2013-05-03 22:11:00,44.0,36.0,-100.00,NNW,345,7.0,11.0,76,-99.99,,,-99.99,,2013-05-04 03:11:00,
2013-05-03 22:22:00,44.0,36.0,-100.00,NNW,345,7.0,11.0,76,-99.99,,,-99.99,,2013-05-04 03:22:00,
2013-05-03 22:33:00,42.0,38.0,-100.00,North,355,6.0,9.0,84,-99.99,,,-99.99,,2013-05-04 03:33:00,
2013-05-03 22:43:00,42.0,38.0,-100.00,North,355,6.0,9.0,84,-99.99,,,-99.99,,2013-05-04 03:43:00,
2013-05-03 22:53:00,42.0,38.0,-100.00,North,355,6.0,9.0,84,-99.99,,,-99.99,,2013-05-04 03:53:00,
2013-05-03 23:02:00,42.0,38.0,-100.00,NNE,20,6.0,7.0,85,-99.99,,,-99.99,,2013-05-04 04:02:00,
2013-05-03 23:12:00,42.0,38.0,-100.00,NNE,20,6.0,7.0,85,-99.99,,,-99.99,,2013-05-04 04:12:00,
2013-05-03 23:22:00,42.0,38.0,-100.00,NNE,20,6.0,7.0,85,-99.99,,,-99.99,,2013-05-04 04:22:00,
2013-05-03 23:33:00,42.0,38.0,-100.00,NNE,25,6.0,9.0,85,-99.99,,,-99.99,,2013-05-04 04:33:00,
2013-05-03 23:43:00,42.0,38.0,-100.00,NNE,25,6.0,9.0,85,-99.99,,,-99.99,,2013-05-04 04:43:00,
2013-05-03 23:52:00,42.0,38.0,-100.00,NNE,25,6.0,9.0,85,-99.99,,,-99.99,,2013-05-04 04:52:00,